[[{"header":{"parameterUnit":"m.s-1","parameterCategory":1,"la1":30.2991,"la2":30.254,"lo1":-89.0895,"lo2":-89.0444,"dy":0.0017,"dx":0.0017,"nx":28,"ny":28,"refTime":"2023-05-23T21:00:00:Z","depth":0,"parameterNumber":2,"parameterNumberName":"U-component_of_WINDS"},"data":[0,0,0,0,0,0,0,0,0,0,0,0,0,0,0,0,0,0,0,0,0,0,0,0,0,0,0,0,0,0,0,0,0,0,0,0,0,0,0,0,0,0,0,0,0,0,0,0,0,0,0,0,0,0,0,0,0,0,-4.2447,-4.2448,0,-4.2498,-4.2499,-4.2499,-4.2388,-4.2384,-4.2381,-4.2377,-4.2426,-4.2431,-4.2435,0,0,0,0,0,0,0,0,0,0,0,0,0,-4.2251,-4.2255,-4.2447,-4.2448,-4.2449,-4.2498,-4.2499,-4.2499,-4.2388,-4.2384,-4.238,-4.2376,-4.2425,-4.243,-4.2436,0,0,0,0,0,0,0,0,0,0,0,0,0,-4.2322,-4.2256,-4.2447,-4.2399,-4.2396,-4.2498,-4.2499,-4.2499,-4.2389,-4.2384,-4.2379,-4.2374,-4.2423,-4.243,-4.2437,-4.2587,0,0,-4.2458,-4.2461,0,0,0,0,0,0,0,0,-4.2318,-4.233,-4.2406,-4.2403,-4.2399,-4.2431,-4.2447,-4.2529,-4.2391,-4.2392,-4.2377,-4.2371,-4.2432,-4.2438,-4.2459,-4.2589,-4.2591,-4.2458,-4.2463,-4.2466,-4.2468,0,0,0,0,0,0,0,-4.2314,-4.2327,-4.2467,-4.2407,-4.2403,-4.2374,-4.2378,-4.2462,-4.2441,-4.2391,-4.2383,-4.2391,-4.2429,-4.2453,-4.2459,-4.2592,-4.2458,-4.2464,-4.2469,-4.2471,-4.2846,-4.2852,0,0,0,0,0,0,-4.2315,-4.2323,-4.2466,-4.2469,-4.2345,-4.2382,-4.2387,-4.2426,-4.244,-4.2437,-4.2395,-4.2385,-4.2443,-4.2451,-4.2461,-4.2637,-4.2466,-4.2472,-4.2476,-4.2841,-4.2848,-4.2854,0,0,0,0,0,0,-4.2311,-4.2329,-4.2464,-4.2394,-4.2409,-4.2391,-4.2436,-4.243,-4.2453,-4.2443,-4.2439,-4.2424,-4.244,-4.2451,-4.2556,-4.2637,-4.2475,-4.2482,-4.2834,-4.2843,-4.2851,-4.2991,0,0,0,0,0,0,-4.2306,-4.2328,-4.2386,-4.2396,-4.2413,-4.256,-4.2441,-4.2435,-4.2466,-4.2454,-4.2469,-4.2466,-4.2436,-4.2547,-4.2563,-4.2644,-4.2487,-4.2826,-4.2838,-4.2848,-4.2979,-4.3004,-4.3025,0,0,0,0,0,-4.23,-4.2423,-4.239,-4.2408,-4.2485,-4.2565,-4.2574,-4.2539,-4.2473,-4.253,-4.2524,-4.2465,-4.2626,-4.2558,-4.2576,-4.266,-4.2821,-4.2835,-4.2847,-4.2969,-4.2999,-4.3024,0,0,0,0,0,0,-4.2423,-4.2424,-4.2387,-4.2517,-4.2542,-4.2546,-4.2617,-4.2571,-4.2614,-4.2601,-4.2553,-4.2558,-4.2672,-4.2676,-4.2601,-4.2805,-4.2712,-4.2729,-4.2799,-4.2827,-4.2849,-4.2846,-4.2493,0,0,0,0,0,-4.2465,-4.2531,-4.2528,-4.2643,-4.2658,-4.2636,-4.2669,-4.2639,-4.2662,-4.2672,-4.2673,-4.2697,-4.2752,-4.2789,-4.284,-4.2979,-4.298,-4.3046,-4.3068,-4.3087,-4.3102,-4.3175,-4.3204,-4.2897,-4.2897,-4.2896,0,0,-4.2553,-4.2562,-4.2606,-4.2668,-4.2684,-4.2752,-4.2645,-4.2721,-4.2771,-4.2683,-4.2783,-4.2784,-4.2807,-4.293,-4.2984,-4.2937,-4.3187,-4.3103,-4.3118,-4.3124,-4.3192,-4.3221,-4.3247,-4.2905,-4.2904,-4.2902,0,0,-4.2749,-4.2762,-4.286,-4.2878,-4.2903,-4.2887,-4.2911,-4.2922,-4.292,-4.3019,-4.2954,-4.3012,-4.3108,-4.3127,-4.315,-4.3352,-4.3299,-4.3369,-4.3487,-4.3559,-4.3583,-4.3605,-4.3676,-4.3702,-4.3385,-4.3385,-4.3385,0,-4.2855,-4.2956,-4.2916,-4.2997,-4.3025,-4.295,-4.3047,-4.3066,-4.3106,-4.3127,-4.3074,-4.3193,-4.3204,-4.333,-4.3379,-4.34,-4.3424,-4.3368,-4.3583,-4.3604,-4.3623,-4.3691,-4.3718,-4.3393,-4.3392,-4.3391,-4.3391,0,-4.3085,-4.3155,-4.3231,-4.3273,-4.331,-4.3399,-4.3371,-4.3413,-4.338,-4.337,-4.3471,-4.3481,-4.3532,-4.3559,-4.3527,-4.368,-4.365,-4.3591,-4.3496,-4.3662,-4.3724,-4.375,-4.3405,-4.3402,-4.34,-4.3398,0,0,-4.3359,-4.3378,-4.3406,-4.3424,-4.3445,-4.3499,-4.3583,-4.3634,-4.3671,-4.37,-4.377,-4.3853,-4.3798,-4.3824,-4.3793,-4.3856,-4.4015,-4.3789,-4.3788,-4.383,-4.4183,-4.4228,-4.4258,-4.398,-4.3985,-4.3988,-4.4181,0,-4.3552,-4.37,-4.3666,-4.3811,-4.3875,-4.3804,-4.3877,-4.3898,-4.389,-4.3943,-4.3933,-4.3993,-4.3917,-4.3931,-4.3991,-4.3983,-4.4085,-4.3969,-4.4043,-4.4046,-4.404,-4.4291,-4.4339,-4.452,-4.4205,-4.4209,-4.4212,0,-4.3798,-4.3838,-4.399,-4.4,-4.4026,-4.4093,-4.4136,-4.4188,-4.4209,-4.4199,-4.4227,-4.4184,-4.4266,-4.4171,-4.4283,-4.4205,-4.4233,-4.4234,-4.424,-4.4246,-4.414,-4.4303,-4.4577,-4.4604,-4.4251,-4.4248,-4.4245,0,-4.3983,-4.4074,-4.4177,-4.4194,-4.4209,-4.4258,-4.4266,-4.4282,-4.4315,-4.4352,-4.4372,-4.4418,-4.4444,-4.448,-4.4449,-4.4383,-4.4567,-4.4469,-4.4559,-4.4561,-4.4602,-4.4599,-4.4884,-4.462,-4.462,-4.4619,-4.4619,0,-4.4202,-4.4297,-4.426,-4.4323,-4.4428,-4.4387,-4.4491,-4.4491,-4.4506,-4.4566,-4.4507,-4.4565,-4.4521,-4.4575,-4.4552,-4.4648,-4.466,-4.4653,-4.4646,-4.4659,-4.466,-4.4676,-4.4663,-4.4627,-4.4625,-4.4624,-4.4622,0,-4.4426,-4.4405,-4.4512,-4.4518,-4.4521,-4.4598,-4.4602,-4.466,-4.4647,-4.4725,-4.4741,-4.4721,-4.4782,-4.4755,-4.4818,-4.4802,-4.4926,-4.4902,-4.4919,-4.4913,-4.5005,-4.4997,-4.531,-4.5349,-4.5061,-4.5064,-4.5067,0,-4.4567,-4.4639,-4.4653,-4.469,-4.4703,-4.4763,-4.4796,-4.4758,-4.4794,-4.4824,-4.4878,-4.4933,-4.4975,-4.5075,-4.5065,-4.5113,-4.5089,-4.5196,-4.5096,-4.5106,-4.509,-4.5086,-4.5093,-4.5216,-4.5219,-4.5222,-4.5224,0,-4.482,-4.4806,-4.4856,-4.4903,-4.4944,-4.4979,-4.5008,-4.5042,-4.5005,-4.5049,-4.511,-4.5143,-4.5208,-4.5263,-4.5305,-4.5311,-4.5262,-4.5256,-4.5279,-4.5293,-4.53,-4.5297,-4.4974,-4.5249,-4.5246,-4.5244,-4.5243,-4.5242,-4.5007,-4.5067,-4.5086,-4.5144,-4.5162,-4.5191,-4.5245,-4.524,-4.5291,-4.5342,-4.5316,-4.5387,-4.5405,-4.5456,-4.547,-4.5524,-4.5482,-4.5516,-4.5525,-4.5534,-4.5546,-4.5292,-4.5531,-4.5531,-4.553,-4.5529,-4.5529,0,-4.5256,-4.5265,-4.5318,-4.5362,-4.5407,-4.5357,-4.5387,-4.5427,-4.5491,-4.5513,-4.5556,-4.5626,-4.5679,-4.5674,-4.5722,-4.5767,-4.5745,-4.5781,-4.5777,-4.5779,-4.5581,-4.5556,-4.5797,-4.5797,-4.5797,-4.5797,-4.5797,-4.5797,-4.5391,-4.549,-4.5478,-4.5586,-4.5593,-4.5663,-4.5685,-4.571,-4.5727,-4.5809,-4.5853,-4.585,-4.586,-4.5909,-4.5955,-4.5952,-4.5972,-4.6016,-4.6005,-4.582,-4.5793,-4.5768,-4.5744,-4.6021,-4.6021,-4.6198,-4.62,-4.6201]},{"header":{"parameterUnit":"m.s-1","parameterCategory":1,"la1":30.2991,"la2":30.254,"lo1":-89.0895,"lo2":-89.0444,"dy":0.0017,"dx":0.0017,"nx":28,"ny":28,"refTime":"2023-05-23T21:00:00:Z","depth":0,"parameterNumber":3,"parameterNumberName":"V-component_of_WINDS"},"data":[0,0,0,0,0,0,0,0,0,0,0,0,0,0,0,0,0,0,0,0,0,0,0,0,0,0,0,0,0,0,0,0,0,0,0,0,0,0,0,0,0,0,0,0,0,0,0,0,0,0,0,0,0,0,0,0,0,0,-4.2962,-4.2963,0,-4.3001,-4.3001,-4.3001,-4.2959,-4.2958,-4.2956,-4.2955,-4.2992,-4.2995,-4.2997,0,0,0,0,0,0,0,0,0,0,0,0,0,-4.2849,-4.2852,-4.2962,-4.2963,-4.2963,-4.3001,-4.3001,-4.3002,-4.296,-4.2958,-4.2956,-4.2954,-4.2992,-4.2994,-4.2997,0,0,0,0,0,0,0,0,0,0,0,0,0,-4.2894,-4.2852,-4.2962,-4.2947,-4.2946,-4.3,-4.3001,-4.3002,-4.296,-4.2958,-4.2955,-4.2953,-4.2991,-4.2994,-4.2998,-4.3069,0,0,-4.3009,-4.3011,0,0,0,0,0,0,0,0,-4.2892,-4.2898,-4.2949,-4.2948,-4.2947,-4.2973,-4.2975,-4.3024,-4.2961,-4.2955,-4.2955,-4.2952,-4.2988,-4.2991,-4.3004,-4.3071,-4.3072,-4.301,-4.3012,-4.3013,-4.3015,0,0,0,0,0,0,0,-4.2888,-4.2896,-4.2977,-4.2949,-4.2948,-4.2937,-4.2941,-4.2984,-4.2984,-4.2955,-4.2952,-4.2957,-4.2987,-4.3,-4.3004,-4.3073,-4.301,-4.3013,-4.3015,-4.3017,-4.3196,-4.3199,0,0,0,0,0,0,-4.2887,-4.2894,-4.2976,-4.2978,-4.2913,-4.2941,-4.2945,-4.2967,-4.2984,-4.2984,-4.2959,-4.2955,-4.2995,-4.3,-4.3006,-4.3088,-4.3013,-4.3017,-4.3019,-4.3194,-4.3197,-4.32,0,0,0,0,0,0,-4.2885,-4.2895,-4.2975,-4.2935,-4.2945,-4.2945,-4.297,-4.2969,-4.2983,-4.2987,-4.2986,-4.2973,-4.2994,-4.3,-4.3053,-4.3088,-4.3019,-4.3022,-4.3191,-4.3195,-4.3198,-4.3254,0,0,0,0,0,0,-4.2882,-4.2895,-4.2923,-4.2936,-4.2947,-4.3022,-4.2973,-4.2971,-4.2989,-4.2984,-4.3,-4.3,-4.2992,-4.3047,-4.3057,-4.3092,-4.3025,-4.3188,-4.3192,-4.3197,-4.3249,-4.3259,-4.3268,0,0,0,0,0,-4.2878,-4.2937,-4.2924,-4.2935,-4.2982,-4.3025,-4.303,-4.3021,-4.2992,-4.302,-4.3022,-4.3,-4.3083,-4.3053,-4.3063,-4.3101,-4.3185,-4.3191,-4.3197,-4.3244,-4.3257,-4.3268,0,0,0,0,0,0,-4.2928,-4.2939,-4.2925,-4.299,-4.3007,-4.3017,-4.3052,-4.3035,-4.3059,-4.3054,-4.3039,-4.3043,-4.3099,-4.3105,-4.3071,-4.3168,-4.3129,-4.3137,-4.3162,-4.3174,-4.3184,-4.3181,-4.3028,0,0,0,0,0,-4.2946,-4.2981,-4.2988,-4.3045,-4.3054,-4.3052,-4.307,-4.306,-4.3077,-4.3084,-4.309,-4.3106,-4.3135,-4.3155,-4.3183,-4.3249,-4.3251,-4.328,-4.3289,-4.3297,-4.3304,-4.3337,-4.3349,-4.3218,-4.3218,-4.3218,0,0,-4.2985,-4.2995,-4.3018,-4.3055,-4.3067,-4.3101,-4.3058,-4.3097,-4.3122,-4.3089,-4.3139,-4.3144,-4.3161,-4.322,-4.3246,-4.3227,-4.334,-4.3304,-4.3311,-4.3313,-4.3344,-4.3356,-4.3367,-4.3222,-4.3221,-4.3221,0,0,-4.3073,-4.3085,-4.3132,-4.3145,-4.3163,-4.316,-4.3172,-4.3185,-4.3186,-4.3236,-4.3212,-4.324,-4.3293,-4.3305,-4.3318,-4.3407,-4.3387,-4.3417,-4.3466,-4.3499,-4.3509,-4.3518,-4.3548,-4.3559,-4.3424,-4.3424,-4.3424,0,-4.3118,-4.317,-4.3159,-4.3199,-4.3215,-4.3187,-4.3233,-4.3246,-4.3272,-4.3283,-4.3261,-4.3324,-4.3333,-4.3394,-4.3415,-4.3428,-4.3438,-4.3415,-4.3508,-4.3517,-4.3526,-4.3554,-4.3566,-4.3427,-4.3427,-4.3426,-4.3426,0,-4.3224,-4.326,-4.3296,-4.3322,-4.3342,-4.3385,-4.3378,-4.34,-4.3388,-4.3388,-4.3437,-4.3447,-4.3475,-4.3489,-4.3479,-4.3547,-4.3534,-4.3511,-4.3471,-4.3542,-4.3568,-4.3579,-4.3432,-4.3431,-4.343,-4.3429,0,0,-4.3346,-4.3362,-4.3376,-4.3385,-4.3402,-4.3429,-4.347,-4.3498,-4.3515,-4.3534,-4.3566,-4.361,-4.3587,-4.3602,-4.3593,-4.3621,-4.3689,-4.3594,-4.3594,-4.3609,-4.3762,-4.3779,-4.3792,-4.3675,-4.3677,-4.3679,-4.376,0,-4.3432,-4.3503,-4.3493,-4.3561,-4.3593,-4.3565,-4.36,-4.3614,-4.3614,-4.364,-4.3639,-4.367,-4.3639,-4.3647,-4.3674,-4.3675,-4.3719,-4.3669,-4.3704,-4.3705,-4.37,-4.3806,-4.3824,-4.3901,-4.3771,-4.3772,-4.3774,0,-4.3543,-4.3565,-4.3636,-4.3645,-4.3658,-4.369,-4.3713,-4.3738,-4.3752,-4.375,-4.3765,-4.375,-4.3789,-4.3749,-4.3801,-4.3767,-4.3781,-4.3783,-4.3786,-4.3788,-4.3743,-4.3809,-4.3925,-4.3936,-4.379,-4.3789,-4.3788,0,-4.3622,-4.3669,-4.3717,-4.3726,-4.3739,-4.3762,-4.3768,-4.3779,-4.3795,-4.3815,-4.3825,-4.3849,-4.3862,-4.388,-4.3871,-4.3843,-4.3924,-4.3884,-4.3922,-4.3922,-4.394,-4.3939,-4.4058,-4.3951,-4.3951,-4.3951,-4.395,0,-4.3719,-4.3763,-4.3752,-4.3781,-4.3829,-4.3816,-4.3863,-4.3866,-4.3875,-4.3904,-4.3882,-4.3908,-4.3895,-4.392,-4.3913,-4.3956,-4.3963,-4.3961,-4.3958,-4.3962,-4.3962,-4.397,-4.3964,-4.3954,-4.3953,-4.3952,-4.3952,0,-4.3815,-4.381,-4.386,-4.3867,-4.3869,-4.3904,-4.391,-4.3936,-4.3934,-4.397,-4.3977,-4.3973,-4.4002,-4.3994,-4.4026,-4.4021,-4.4075,-4.4066,-4.407,-4.4067,-4.4105,-4.4101,-4.4232,-4.4248,-4.4133,-4.4134,-4.4135,0,-4.3877,-4.391,-4.392,-4.3937,-4.3945,-4.3973,-4.3989,-4.3977,-4.3994,-4.401,-4.4035,-4.4061,-4.4081,-4.4128,-4.4127,-4.4151,-4.4141,-4.4186,-4.4145,-4.4147,-4.414,-4.4137,-4.414,-4.4194,-4.4195,-4.4196,-4.4197,0,-4.3987,-4.3982,-4.4006,-4.4028,-4.4048,-4.4065,-4.408,-4.4095,-4.4083,-4.4103,-4.4132,-4.4148,-4.4179,-4.4205,-4.4225,-4.423,-4.4211,-4.421,-4.4219,-4.4223,-4.4223,-4.4222,-4.4091,-4.4207,-4.4206,-4.4205,-4.4204,-4.4204,-4.4067,-4.4093,-4.4104,-4.4131,-4.414,-4.4154,-4.4179,-4.4179,-4.4202,-4.4226,-4.4217,-4.4249,-4.426,-4.4285,-4.4293,-4.4317,-4.43,-4.4315,-4.4318,-4.4322,-4.4325,-4.422,-4.4321,-4.4321,-4.4321,-4.432,-4.432,0,-4.4173,-4.4178,-4.4203,-4.4224,-4.4244,-4.4224,-4.4239,-4.4257,-4.4286,-4.4297,-4.4317,-4.4348,-4.4373,-4.4373,-4.4396,-4.4415,-4.4406,-4.4421,-4.4419,-4.442,-4.434,-4.4329,-4.4427,-4.4427,-4.4427,-4.4427,-4.4427,-4.4427,-4.4231,-4.4275,-4.4271,-4.4318,-4.4322,-4.4353,-4.4363,-4.4375,-4.4384,-4.442,-4.444,-4.444,-4.4446,-4.4469,-4.4489,-4.4489,-4.4497,-4.4515,-4.4511,-4.4437,-4.4426,-4.4416,-4.4405,-4.4517,-4.4518,-4.4588,-4.4589,-4.4589]}]]